DW0805 Weather Reports


Display with metric or nautical units.
time (UTC)temp
F
wind
direction
speed
MPH
gust
MPH
rain 1hr
in
rain 24hr
in
rain mn
in
humidity
%
barometer
mb
20260508111513 62 148 6.0 13.0 0.00 0.00 0.00 38 1023.2
20260508103513 62 144 7.0 12.0 0.00 0.00 0.00 43 1023.1
20260508100513 63 140 5.0 9.0 0.00 0.00 0.00 50 1023.1
20260508095513 62 153 5.0 10.0 0.00 0.00 0.00 52 1023.1
20260508094514 62 172 4.0 10.0 0.00 0.00 0.00 53 1023.1
20260508093513 62 151 3.0 10.0 0.00 0.00 0.00 52 1023.1
20260508090513 61 176 4.0 9.0 0.00 0.00 0.00 56 1023.1
20260508085513 61 158 5.0 9.0 0.00 0.00 0.00 53 1023.1
20260508084513 60 141 5.0 10.0 0.00 0.00 0.00 55 1023.1
20260508083514 60 136 3.0 10.0 0.00 0.00 0.00 56 1023.0
20260508081514 58 110 5.0 8.0 0.00 0.00 0.00 63 1023.0
20260508063513 57 77 4.0 6.0 0.00 0.00 0.00 71 1022.0
20260508050513 45 53 0.0 0.0 0.00 0.00 0.00 94 1021.7
20260508044513 42 53 0.0 0.0 0.00 0.00 0.00 96 1021.6
20260508041514 38 52 0.0 0.0 0.00 0.00 0.00 95 1021.4
20260508033513 36 53 0.0 0.0 0.00 0.00 0.00 94 1021.1
20260508031514 36 53 0.0 0.0 0.00 0.00 0.00 93 1021.0
20260508030513 37 53 0.0 0.0 0.00 0.00 0.00 94 1021.0
20260508024513 37 53 0.0 0.0 0.00 0.00 0.00 94 1020.8
20260508023514 38 53 0.0 0.0 0.00 0.00 0.00 94 1020.8
20260508021514 36 53 0.0 0.0 0.00 0.00 0.00 94 1020.7
20260508020514 35 53 0.0 0.0 0.00 0.00 0.00 93 1020.7
20260508015513 36 53 0.0 0.0 0.00 0.00 0.00 93 1020.7
20260508014514 37 53 0.0 0.0 0.00 0.00 0.00 93 1020.6
20260508011513 36 53 0.0 0.0 0.00 0.00 0.00 92 1020.4
20260508010513 36 53 0.0 0.0 0.00 0.00 0.00 92 1020.5
20260508005513 36 53 0.0 0.0 0.00 0.00 0.00 92 1020.4
20260508004514 36 53 0.0 0.0 0.00 0.00 0.00 92 1020.3
20260508003513 37 53 0.0 0.0 0.00 0.00 0.00 92 1020.3
20260507234513 38 53 0.0 0.0 0.00 0.00 0.00 91 1020.2
20260507233514 38 53 0.0 0.0 0.00 0.00 0.00 91 1020.1
20260507231514 39 53 0.0 0.0 0.00 0.00 0.00 90 1020.1
20260507225513 39 53 0.0 0.0 0.00 0.00 0.00 89 1020.0
20260507223514 39 53 0.0 0.0 0.00 0.00 0.00 88 1019.8
20260507222514 40 53 0.0 0.0 0.00 0.00 0.00 88 1019.8
20260507221510 40 53 0.0 0.0 0.00 0.00 0.00 88 1019.8
20260507220514 40 53 0.0 0.0 0.00 0.00 0.00 87 1019.7
20260507215514 41 53 0.0 0.0 0.00 0.00 0.00 87 1019.7
20260507213513 42 53 0.0 1.0 0.00 0.00 0.00 86 1019.7
20260507204515 45 53 1.0 1.0 0.00 0.00 0.00 81 1019.3
20260507202513 46 53 1.0 5.0 0.00 0.00 0.00 80 1019.1
20260507191514 49 297 0.0 0.0 0.00 0.00 0.00 76 1018.2
20260507190514 50 294 0.0 0.0 0.00 0.00 0.00 75 1018.0
20260507182513 52 298 3.0 7.0 0.00 0.00 0.00 71 1017.7
20260507181514 52 280 3.0 7.0 0.00 0.00 0.00 70 1017.8
20260507180514 53 285 4.0 8.0 0.00 0.00 0.00 68 1017.7
20260507175514 54 329 5.0 8.0 0.00 0.00 0.00 66 1017.7
20260507174513 56 296 5.0 8.0 0.00 0.00 0.00 63 1017.6
20260507170515 60 311 4.0 8.0 0.00 0.00 0.00 50 1017.4
20260507165514 61 339 2.0 7.0 0.00 0.00 0.00 48 1017.3
20260507162514 61 337 4.0 8.0 0.00 0.00 0.00 49 1017.4
20260507155514 60 351 6.0 10.0 0.00 0.00 0.00 55 1017.4
20260507154515 60 290 5.0 8.0 0.00 0.00 0.00 58 1017.5
20260507153513 60 353 5.0 9.0 0.00 0.00 0.00 54 1017.4
20260507152513 61 309 6.0 10.0 0.00 0.00 0.00 53 1017.4
20260507151513 60 352 5.0 10.0 0.00 0.00 0.00 55 1017.2
20260507143514 60 347 4.0 10.0 0.00 0.00 0.00 59 1017.2
20260507134514 60 343 5.0 8.0 0.00 0.00 0.00 56 1017.4
20260507132514 60 346 5.0 12.0 0.00 0.00 0.00 58 1017.3
20260507131514 60 339 4.0 10.0 0.00 0.00 0.00 58 1017.3
20260507130513 59 331 4.0 12.0 0.00 0.00 0.00 57 1017.2
20260507125514 59 324 8.0 12.0 0.00 0.00 0.00 51 1017.2
20260507123515 59 335 5.0 10.0 0.00 0.00 0.00 58 1017.1
20260507121514 59 348 6.0 10.0 0.00 0.00 0.00 57 1017.0
20260507115515 59 306 4.0 12.0 0.00 0.00 0.00 63 1017.0
20260507113514 59 347 6.0 10.0 0.00 0.00 0.00 60 1017.0